This is the latest recevied weather packets stored in our database for station/object iw0uwf-4. If no packets are shown the sender has not sent any weather packets the latest 1 day(s).
| Time | Temp. | Humidity | Pressure | Rain* | Wind** | Luminosity | Snow |
|---|---|---|---|---|---|---|---|
| 1777980964 | 20° C | 66% | 1006.6 hPa | 0 mm | 2.68 m/s, 249° | 0 W/m² | - |
| 1777980904 | 20° C | 65% | 1006.6 hPa | 0 mm | 2.68 m/s, 248° | 0 W/m² | - |
| 1777980844 | 20° C | 65% | 1006.6 hPa | 0 mm | 2.68 m/s, 239° | 0 W/m² | - |
| 1777980784 | 20° C | 65% | 1006.7 hPa | 0 mm | 2.68 m/s, 224° | 0 W/m² | - |
| 1777980724 | 20° C | 66% | 1006.5 hPa | 0 mm | 2.68 m/s, 225° | 0 W/m² | - |
| 1777980664 | 20° C | 66% | 1006.6 hPa | 0 mm | 2.24 m/s, 229° | 0 W/m² | - |
| 1777980604 | 20° C | 67% | 1006.7 hPa | 0 mm | 2.68 m/s, 228° | 0 W/m² | - |
| 1777980544 | 20° C | 67% | 1006.7 hPa | 0 mm | 2.68 m/s, 228° | 0 W/m² | - |
| 1777980484 | 20° C | 67% | 1006.6 hPa | 0 mm | 2.68 m/s, 229° | 0 W/m² | - |
| 1777980424 | 20° C | 67% | 1006.6 hPa | 0 mm | 2.68 m/s, 230° | 0 W/m² | - |
| 1777980364 | 20° C | 67% | 1006.6 hPa | 0 mm | 3.13 m/s, 220° | 0 W/m² | - |
| 1777980303 | 20° C | 67% | 1006.8 hPa | 0 mm | 3.13 m/s, 214° | 0 W/m² | - |
| 1777980243 | 20° C | 68% | 1006.5 hPa | 0 mm | 3.13 m/s, 225° | 0 W/m² | - |
| 1777980183 | 20° C | 69% | 1006.8 hPa | 0 mm | 3.13 m/s, 254° | 0 W/m² | - |
| 1777980123 | 20° C | 70% | 1006.8 hPa | 0 mm | 3.13 m/s, 244° | 0 W/m² | - |
| 1777980063 | 20° C | 70% | 1006.6 hPa | 0 mm | 3.13 m/s, 262° | 0 W/m² | - |
| 1777979823 | 20° C | 70% | 1006.6 hPa | 0 mm | 2.24 m/s, 247° | 0 W/m² | - |
| 1777979763 | 19.44° C | 70% | 1006.6 hPa | 0 mm | 2.68 m/s, 249° | 0 W/m² | - |
| 1777979703 | 19.44° C | 70% | 1006.7 hPa | 0 mm | 2.24 m/s, 247° | 0 W/m² | - |
| 1777979643 | 19.44° C | 70% | 1006.7 hPa | 0 mm | 2.24 m/s, 245° | 0 W/m² | - |
| 1777979583 | 19.44° C | 70% | 1006.7 hPa | 0 mm | 2.68 m/s, 249° | 0 W/m² | - |
| 1777979523 | 19.44° C | 70% | 1006.7 hPa | 0 mm | 2.68 m/s, 257° | 0 W/m² | - |
| 1777979463 | 19.44° C | 70% | 1006.7 hPa | 0 mm | 2.68 m/s, 255° | 0 W/m² | - |
| 1777979404 | 19.44° C | 70% | 1006.7 hPa | 0 mm | 2.68 m/s, 256° | 0 W/m² | - |
| 1777979344 | 19.44° C | 70% | 1006.8 hPa | 0 mm | 2.68 m/s, 261° | 0 W/m² | - |
* Rain latest hour (hover to see other rain measurements)
** Current wind speed in m/s (hover to see current wind gust speed)